NOAA 15 1 25338U 98030A 24263.84757078 .00000529 00000-0 23624-3 0 9990 2 25338 98.5641 288.9824 0011166 52.7774 307.4424 14.26713971370931 NAVSTAR 50 (USA 156) 1 26690U 01004A 24263.21499492 -.00000035 00000-0 00000+0 0 9993 2 26690 54.6982 56.0250 0001605 43.4841 170.0169 1.91588067171337 METEOSAT 8 (MSG 1) 1 27509U 02040B 24263.39759260 -.00000047 00000-0 00000-0 0 9999 2 27509 9.9964 45.9653 0015744 65.2212 123.9280 0.97901879 80714 NAVSTAR 51 (USA 166) 1 27663U 03005A 24263.55186552 .00000023 00000-0 00000-0 0 9991 2 27663 55.0710 240.2395 0137895 47.7044 49.8449 2.00569338158567 NAVSTAR 54 (USA 177) 1 28190U 04009A 24263.29836427 -.00000026 00000-0 00000-0 0 9990 2 28190 55.3730 301.2776 0098895 152.9493 275.8076 2.00556343150192 NAVSTAR 55 (USA 178) 1 28361U 04023A 24262.20833157 .00000048 00000-0 00000-0 0 9996 2 28361 54.4665 112.4945 0150102 283.7057 260.7654 2.00550902148263 NAVSTAR 56 (USA 180) 1 28474U 04045A 24261.23942618 -.00000081 00000-0 00000-0 0 9998 2 28474 55.4077 350.5278 0163698 294.6978 133.9234 2.00562026145630 NOAA 18 1 28654U 05018A 24263.79295417 .00000573 00000-0 32850-3 0 9996 2 28654 98.8684 339.9514 0014837 152.0247 208.1725 14.13334004996628 NAVSTAR 57 (USA 183) 1 28874U 05038A 24263.20629374 -.00000021 00000-0 00000-0 0 9999 2 28874 55.4186 298.7458 0137728 285.1325 99.2621 2.00549034139084 METEOSAT 9 (MSG 2) 1 28912U 05049B 24263.60274560 .00000122 00000-0 00000+0 0 9991 2 28912 7.9003 60.0422 0001847 186.4466 15.1786 1.00269811 68709 GOES 13 1 29155U 06018A 24262.42144017 -.00000222 00000-0 00000-0 0 9993 2 29155 2.8641 84.1439 0066390 256.1943 340.1485 0.98904016 36953 METOP-A 1 29499U 06044A 24263.53607811 .00003805 00000-0 47728-3 0 9992 2 29499 98.3500 341.1524 0184843 290.6871 129.8138 14.71496711931805 NAVSTAR 59 (USA 192) 1 29601U 06052A 24263.22850105 .00000022 00000-0 00000-0 0 9995 2 29601 55.1044 239.2366 0084615 83.6277 277.3085 2.00572748130659 NAVSTAR 60 (USA 196) 1 32260U 07047A 24263.53409969 .00000030 00000-0 00000-0 0 9996 2 32260 53.6572 106.3399 0158848 77.5109 284.3495 2.00559485124063 NAVSTAR 61 (USA 199) 1 32384U 07062A 24263.59408228 -.00000025 00000-0 00000-0 0 9998 2 32384 55.5597 299.6063 0028230 157.3162 15.7353 2.00552501122765 NOAA 19 1 33591U 09005A 24263.82871344 .00000474 00000-0 27784-3 0 9995 2 33591 99.0377 320.5904 0014137 29.5408 330.6560 14.13123267804998 GOES 14 1 35491U 09033A 24263.50067399 -.00000075 00000-0 00000-0 0 9996 2 35491 0.0282 126.0800 0004030 41.6321 263.0045 1.00269926 215 GOES 15 1 36411U 10008A 24263.53436799 .00000030 00000-0 00000-0 0 9990 2 36411 0.3616 274.6868 0006017 304.6505 33.2949 1.00269562 53268 ELEKTRO-L 1 37344U 11001A 24263.23639642 -.00000008 00000-0 00000-0 0 9995 2 37344 8.2269 60.6913 0004776 38.0409 346.5867 1.00238829 50112 COSMOS 2471 (GLONASS) 1 37372U 11009A 24263.31828716 -.00000054 00000-0 00000-0 0 9996 2 37372 65.7393 335.8891 0008981 324.6124 83.7762 2.12911338105540 NAVSTAR 66 (USA 232) 1 37753U 11036A 24263.18937307 -.00000089 00000-0 00000-0 0 9999 2 37753 56.7563 356.7142 0128449 58.8051 309.3024 2.00569790 96523 GALILEO-PFM 1 37846U 11060A 24263.57681947 -.00000095 00000-0 00000+0 0 9994 2 37846 57.1260 358.9843 0000482 68.5355 291.5007 1.70475637 80414 GALILEO-FM2 1 37847U 11060B 24254.66872722 -.00000083 00000-0 00000+0 0 9995 2 37847 57.1278 359.2253 0001741 310.7991 27.6702 1.70475295 80252 LUCH 5A 1 37951U 11074B 24263.61405218 -.00000053 00000-0 00000-0 0 9991 2 37951 7.1234 83.4655 0004571 97.8497 205.7549 1.00269159 46674 METEOSAT 10 (MSG 3) 1 38552U 12035B 24263.37917396 -.00000012 00000-0 00000-0 0 9990 2 38552 3.1759 61.4848 0000784 217.2220 216.6813 1.00273307 44486 METOP-B 1 38771U 12049A 24263.77656384 .00000431 00000-0 21675-3 0 9997 2 38771 98.6185 318.8329 0001276 112.1721 247.9592 14.21514086622987 NAVSTAR 67 (USA 239) 1 38833U 12053A 24263.13323920 .00000025 00000-0 00000-0 0 9993 2 38833 53.5178 169.6320 0157421 57.3864 304.1703 2.00559970 86689 GALILEO-FM3 1 38857U 12055A 24263.02975998 .00000038 00000-0 00000-0 0 9991 2 38857 55.4458 119.0250 0002202 274.3417 85.7425 1.70473635 74161 GALILEO-FM4 1 38858U 12055B 24260.30547688 .00000043 00000-0 00000-0 0 9997 2 38858 55.4535 119.4578 0001957 90.0834 270.0531 1.64592081 2615 NAVSTAR 68 (USA 242) 1 39166U 13023A 24263.49403441 -.00000019 00000-0 00000-0 0 9991 2 39166 55.0316 294.7768 0124340 44.9733 316.0844 2.00562400 83134 INSAT 3D 1 39216U 13038B 24263.54792406 -.00000347 00000-0 00000-0 0 9995 2 39216 0.2740 92.3650 0001797 106.3775 127.0219 1.00270953 40704 NAVSTAR 69 (USA 248) 1 39533U 14008A 24262.99144855 .00000022 00000-0 00000+0 0 9990 2 39533 53.5998 175.2486 0073180 221.1205 138.3611 2.00573764 77471 LUCH 5V 1 39727U 14023A 24263.82715765 -.00000275 00000-0 00000+0 0 9990 2 39727 3.5315 75.3065 0003411 145.9994 170.3858 1.00275182556131 NAVSTAR 70 (USA 251) 1 39741U 14026A 24263.27302983 -.00000089 00000-0 00000-0 0 9996 2 39741 56.7013 356.2249 0032086 313.3534 46.4166 2.00561403 75785 NAVSTAR 71 (USA 256) 1 40105U 14045A 24262.86474538 .00000044 00000-0 00000-0 0 9993 2 40105 54.9714 113.8639 0029055 115.4593 244.9383 2.00572657 73313 GALILEO 5 (261) 1 40128U 14050A 24262.87189496 -.00000037 00000-0 00000-0 0 9994 2 40128 49.5628 299.2932 1613511 154.9241 213.8855 1.85519370 66510 GALILEO 6 (262) 1 40129U 14050B 24263.12983964 -.00000037 00000-0 00000-0 0 9996 2 40129 49.5790 298.3610 1612548 155.7306 212.8146 1.85520109 68688 NAVSTAR 72 (USA 258) 1 40294U 14068A 24263.23954585 -.00000031 00000-0 00000-0 0 9991 2 40294 56.5030 55.5753 0055147 65.4537 295.1271 2.00565705 72457 COSMOS 2501 (GLONASS) 1 40315U 14075A 24263.45423525 .00000029 00000-0 00000+0 0 9997 2 40315 63.6212 212.3997 0020470 210.1092 149.7525 2.13101319 76306 NAVSTAR 73 (USA 260) 1 40534U 15013A 24263.36932763 .00000019 00000-0 00000-0 0 9992 2 40534 53.3159 230.4943 0091093 30.5618 329.9311 2.00559788 69078 GALILEO 7 (263) 1 40544U 15017A 24263.35584236 -.00000095 00000-0 00000-0 0 9999 2 40544 56.9208 358.9115 0004288 240.2936 119.6947 1.70476103 58367 GALILEO 8 (264) 1 40545U 15017B 24257.74443920 -.00000083 00000-0 00000-0 0 9997 2 40545 56.9278 359.0800 0004297 223.8405 136.1498 1.70475599 21314 NAVSTAR 74 (USA 262) 1 40730U 15033A 24263.53113828 -.00000018 00000-0 00000+0 0 9993 2 40730 54.5140 293.2017 0095807 19.7723 340.6509 2.00562075 67262 GALILEO 9 (205) 1 40889U 15045A 24262.20516633 .00000024 00000-0 00000-0 0 9992 2 40889 55.1805 239.1990 0003599 10.7032 349.2671 1.70473075 56150 GALILEO 10 (206) 1 40890U 15045B 24263.59898716 .00000021 00000-0 00000+0 0 9998 2 40890 55.1790 239.1559 0002109 339.4126 20.5384 1.70473057 56203 NAVSTAR 75 (USA 265) 1 41019U 15062A 24263.09293679 -.00000030 00000-0 00000-0 0 9995 2 41019 56.4826 55.4351 0098462 224.6482 134.5644 2.00562538 65074 GALILEO 12 (269) 1 41174U 15079A 24262.59586280 .00000041 00000-0 00000-0 0 9993 2 41174 55.4649 118.7472 0002725 350.4018 9.7041 1.70473936 53929 GALILEO 11 (268) 1 41175U 15079B 24261.05592795 .00000043 00000-0 00000-0 0 9994 2 41175 55.4624 118.7872 0002341 355.2678 4.8429 1.70473847 54317 NAVSTAR 76 (USA 266) 1 41328U 16007A 24263.17428362 .00000042 00000-0 00000-0 0 9998 2 41328 55.1632 114.7150 0080484 238.4587 120.8469 2.00557236 63089 GALILEO 14 (26B) 1 41549U 16030A 24262.93810256 .00000022 00000-0 00000-0 0 9997 2 41549 55.3278 239.1954 0003489 317.4089 42.5243 1.70473181 51822 GALILEO 13 (26A) 1 41550U 16030B 24263.78283875 .00000022 00000-0 00000+0 0 9993 2 41550 55.3267 239.1706 0003814 244.5426 115.3776 1.70473601 51810 GALILEO 15 (267) 1 41859U 16069A 24261.71626777 .00000042 00000-0 00000-0 0 9993 2 41859 55.1300 118.7504 0002433 326.4220 33.6755 1.70473906 48536 GALILEO 16 (26C) 1 41860U 16069B 24260.98387163 .00000042 00000-0 00000-0 0 9996 2 41860 55.1270 118.7668 0002501 16.2676 343.8531 1.70474114 48776 GALILEO 17 (26D) 1 41861U 16069C 24263.11204378 .00000037 00000-0 00000-0 0 9995 2 41861 55.1306 118.7145 0002094 286.5136 73.5721 1.70474447 48673 GALILEO 18 (26E) 1 41862U 16069D 24262.08420162 .00000041 00000-0 00000-0 0 9997 2 41862 55.1283 118.7365 0001250 299.7971 60.3027 1.70474013 48782